Location: Hilton Head Island
(32.2163°N, 80.7526°W)
Time: 20:13:09
(UTC-05:00)

Transit 2A - Pass Details

Date: 22 February 2026
Orbit: 590 x 954 km, 66.7° (Epoch: 7 March)

Event Time Altitude Azimuth Distance (km) Brightness Sun altitude
Rises 19:33:27 0° 352° (N) 3,519 9.5 -17.3°
Reaches altitude 10° 19:37:21 10° 16° (NNE) 2,505 8.5 -18.1°
Enters shadow 19:39:20 14° 36° (NE) 2,207 8.0 -18.5°
